Regional Weather Roundup
Issued by NWS

Home | Current Version | Previous Version | Graphics & Text | Print | Product List | Glossary On
Versions: 1 2 3 4 5 6 7 8 9 10 11 12 13 14 15 16 17 18 19 20 21 22 23 24 25 26 27 28 29 30 31 32 33 34 35 36 37 38 39 40 41 42 43 44 45 46 47 48 49 50
000
ASUS45 KCYS 220810
RWRWY

WYOMING REGIONAL WEATHER ROUNDUP
NATIONAL WEATHER SERVICE CHEYENNE WY
100 AM MST SAT NOV 22 2014

NOTE:  "FAIR" INDICATES FEW OR NO CLOUDS BELOW 12,000 FEET
WITH NO SIGNIFICANT WEATHER AND/OR OBSTRUCTIONS TO VISIBILITY.

WYZ001-220900-
YELLOWSTONE NATIONAL PARK

CITY           SKY/WX    TMP DP  RH WIND       PRES   REMARKS
LK YELLOWSTONE   N/A     27  23  85 CALM      29.85F
W YELLOWSTONE  NOT AVBL

$$
WYZ002>013-054>058-071-098>099-220900-
NORTHERN WYOMING

CITY           SKY/WX    TMP DP  RH WIND       PRES   REMARKS
JACKSON        CLOUDY    32  28  86 S20G26    29.90S WCI  20
CODY           CLOUDY    43  19  39 SW10      29.66F
GREYBULL       MOCLDY    11  10  96 CALM      29.71F
WORLAND        MOCLDY    14  12  92 S3        29.70F
SHERIDAN       PTCLDY    29  19  66 VRB3      29.61F
BUFFALO        CLEAR     33  17  51 SW6       29.64F WCI  28
GILLETTE       CLEAR     32  22  66 S15       29.66F WCI  22
HULETT           N/A    N/A N/A N/A MISG        N/A
NEWCASTLE      FAIR      30  23  74 E7        29.77F WCI  23

$$
WYZ014>020-022>026-101>103-220900-
CENTRAL WYOMING

CITY           SKY/WX    TMP DP  RH WIND       PRES   REMARKS
BIG PINEY      MOCLDY    17  14  88 CALM      29.95F
PINEDALE       PTSUNNY   18  16  93 CALM      29.95F
DUBOIS         FAIR      32  18  55 NW15G31   29.79F WCI  22
LANDER         NOT AVBL
RIVERTON       MOCLDY    24  18  77 SW9       29.77F WCI  14
CASPER         CLEAR     36  21  54 SW20      29.77F WCI  25
DOUGLAS        CLEAR     51  22  31 W13       29.79F

$$
WYZ021-027>030-104>119-220900-
SOUTHERN WYOMING

CITY           SKY/WX    TMP DP  RH WIND       PRES   REMARKS
EVANSTON       MOCLDY    32  21  64 SW12      29.98F WCI  23
KEMMERER       PTSUNNY   28  19  69 SW5       29.97S WCI  23
FORT BRIDGER   FAIR      33  22  63 W10       30.00F WCI  25
ROCK SPRINGS   CLEAR     30  17  58 SW13      29.96F WCI  20
DIXON          FAIR      21  17  85 CALM      30.03S
RAWLINS        CLEAR     34  16  47 W14       29.91S WCI  25
SARATOGA       FAIR      28  19  69 S6        29.94F WCI  22
LARAMIE        CLEAR     30  16  56 SW8       29.91F WCI  22
CHEYENNE       CLEAR     30  16  56 SW9       29.88F WCI  22
TORRINGTON     CLEAR     24  18  77 SE6       29.83F WCI  17
PINE BLUFFS    FAIR      30  18  59 SW9       29.88F WCI  22

$$



USA.gov is the U.S. government's official web portal to all federal, state and local government web resources and services.